Location: Monfort
(47.1967°N, 0.2115°W)
Time: 11:51:04
(UTC+00:00)

S3M - Pass Details

Date: 24 October 2020
Orbit: 950 x 1003 km, 83.0° (Epoch: 27 November)

Event Time Altitude Azimuth Distance (km) Brightness Sun altitude
Rises 18:34:58 0° 170° (S) 3,609 6.9 -17.3°
Reaches altitude 10° 18:37:30 10° 165° (SSE) 2,668 6.1 -17.7°
Maximum altitude 18:43:21 51° 91° (E) 1,186 4.0 -18.7°
Drops below altitude 10° 18:49:17 10° 18° (NNE) 2,703 6.2 -19.8°
Sets 18:51:52 0° 13° (NNE) 3,660 6.9 -20.2°
